Location: Newark
(59.4564°N, 26.6917°E)
Time: 04:03:56
(UTC+00:00)

Tiros 1 - All Passes

Search period start: 20 November 2019 00:00
Search period end: 30 November 2019 00:00
Orbit: 630 x 664 km, 48.4° (Epoch: 18 November)

Date Brightness Start Highest point End Pass type
(mag) Time Alt. Az. Time Alt. Az. Time Alt. Az.
20 Nov - 12:29:32 10° S 12:31:21 12° SSE 12:33:11 10° SE daylight
20 Nov - 14:08:57 10° SW 14:12:20 20° S 14:15:43 10° SE daylight
20 Nov - 15:50:13 10° WSW 15:53:28 19° SSW 15:56:45 10° SSE visible
21 Nov - 12:53:54 10° SSW 12:56:48 17° SSE 12:59:44 10° ESE daylight
21 Nov - 14:34:27 10° SW 14:37:55 21° S 14:41:24 10° SE visible
21 Nov - 16:16:19 10° WSW 16:18:59 15° SSW 16:21:40 10° SSE visible
22 Nov - 11:39:48 10° S 11:41:24 12° SSE 11:43:00 10° SE daylight
22 Nov - 13:19:00 10° SW 13:22:21 20° S 13:25:43 10° SE daylight
22 Nov - 15:00:13 10° WSW 15:03:30 19° SSW 15:06:48 10° SE visible
22 Nov - 16:43:33 10° SW 16:44:25 10° SSW 16:45:17 10° SSW visible
23 Nov - 12:04:00 10° SSW 12:06:51 16° SSE 12:09:41 10° ESE daylight
23 Nov - 13:44:29 10° SW 13:47:56 21° S 13:51:25 10° SE daylight
23 Nov - 15:26:17 10° WSW 15:29:01 16° SSW 15:31:46 10° SSE visible
24 Nov - 10:50:06 10° SSE 10:51:27 11° SSE 10:52:47 10° SE daylight
24 Nov - 12:29:04 10° SW 12:32:23 20° S 12:35:42 10° SE daylight
24 Nov - 14:10:13 10° SW 14:13:31 20° S 14:16:50 10° SE daylight
24 Nov - 15:53:14 10° SW 15:54:27 11° SSW 15:55:41 10° SSW visible
25 Nov - 11:14:07 10° SSW 11:16:53 16° SSE 11:19:38 10° ESE daylight
25 Nov - 12:54:30 10° SW 12:57:58 21° S 13:01:25 10° SE daylight
25 Nov - 14:36:15 10° WSW 14:39:04 16° SSW 14:41:52 10° SSE visible
26 Nov - 10:00:29 10° SSE 10:01:29 11° SSE 10:02:30 10° SE daylight
26 Nov - 11:39:07 10° SW 11:42:24 19° S 11:45:42 10° ESE daylight
26 Nov - 13:20:13 10° SW 13:23:33 20° S 13:26:53 10° SE daylight
26 Nov - 15:03:01 10° SW 15:04:30 11° SSW 15:06:00 10° S visible
27 Nov - 10:24:14 10° SSW 10:26:55 15° SSE 10:29:35 10° ESE daylight
27 Nov - 12:04:32 10° SW 12:07:59 21° S 12:11:26 10° SE daylight
27 Nov - 13:46:12 10° WSW 13:49:05 16° SSW 13:51:58 10° SSE daylight
28 Nov - 09:11:06 10° SSE 09:11:32 10° SSE 09:11:59 10° SE daylight
28 Nov - 10:49:11 10° SSW 10:52:26 19° SSE 10:55:41 10° ESE daylight
28 Nov - 12:30:13 10° SW 12:33:34 20° S 12:36:55 10° SE daylight
28 Nov - 14:12:50 10° SW 14:14:32 12° SSW 14:16:15 10° S visible
29 Nov - 09:34:22 10° SSW 09:36:57 15° SSE 09:39:32 10° ESE daylight
29 Nov - 11:14:34 10° SW 11:18:01 21° S 11:21:27 10° SE daylight
29 Nov - 12:56:10 10° WSW 12:59:07 17° SSW 13:02:04 10° SSE daylight
